Turksat 5B

operational
NORAD ID: 50212 Int'l Des: 2021-126 Owner: TURKS Country: TR
HEOCIRCULARGSO

Turksat 5Bについて

説明を読み込み中...

リアルタイム位置

3D地球を読み込み中...

次回通過

高度履歴

Altitude vs Time

uPlot chart will show altitude changes over time

軌道要素

1 50212U 21126A 26061.07128029 .00000128 00000-0 00000+0 0 9996
2 50212 0.0755 327.3673 0005497 359.3452 260.7621 1.00271495 15229
Epoch: Mar 2, 2026 • Age: 40 hours

現在のステータス

高度 35797.6 km
速度 3.07 km/s
衛星直下点 0.04°N, 42.03°E
打ち上げ日 Dec 19, 2021
運用期間 4.2 years
タイプ other

技術仕様

分類 Payload
質量 4500.00 kg
乾燥質量 3500.00 kg
総質量 4500.00 kg
長さ 4.50 m
直径 3.00 m
スパン 34.00 m
形状 Box + 2 Pan
製造者 ADSB
バスタイプ Eurostar 3000EOR
フェーズステータス In Orbit
所有者/国 TURKS/TR

大規模コンステレーション

Loading constellations...